TimeCDT,TemperatureF,Dew PointF,Humidity,Sea Level PressureIn,VisibilityMPH,Wind Direction,Wind SpeedMPH,Gust SpeedMPH,PrecipitationIn,Events,Conditions,WindDirDegrees,DateUTC
12:56 AM,50.9,50.0,97,30.36,10.0,Calm,Calm,-,0.00,,Overcast,0,2013-04-27 05:56:00
1:37 AM,51.8,51.8,100,30.36,4.0,Calm,Calm,-,0.00,Rain,Heavy Rain,0,2013-04-27 06:37:00
1:56 AM,50.9,50.9,100,30.37,4.0,Calm,Calm,-,0.00,Rain,Heavy Rain,0,2013-04-27 06:56:00
2:05 AM,51.8,51.8,100,30.32,5.0,Calm,Calm,-,0.00,Rain,Rain,0,2013-04-27 07:05:00
2:56 AM,50.9,50.9,100,30.34,5.0,Calm,Calm,-,0.00,Rain,Light Rain,0,2013-04-27 07:56:00
3:21 AM,51.8,51.8,100,30.29,5.0,Calm,Calm,-,0.00,Rain,Rain,0,2013-04-27 08:21:00
3:56 AM,50.9,50.0,97,30.28,10.0,Calm,Calm,-,0.00,,Scattered Clouds,0,2013-04-27 08:56:00
4:56 AM,50.9,50.9,100,30.25,10.0,SSE,6.9,-,0.00,,Mostly Cloudy,150,2013-04-27 09:56:00
5:56 AM,52.0,50.9,96,30.26,4.0,Calm,Calm,-,0.00,Rain,Rain,0,2013-04-27 10:56:00
6:15 AM,51.8,51.8,100,30.25,4.0,NE,5.8,-,0.00,Rain,Light Rain,40,2013-04-27 11:15:00
6:56 AM,52.0,52.0,100,30.28,4.0,ENE,5.8,-,0.00,Rain,Rain,70,2013-04-27 11:56:00
7:09 AM,51.8,51.8,100,30.25,2.0,ENE,5.8,-,0.01,Rain,Heavy Rain,60,2013-04-27 12:09:00
7:34 AM,51.8,51.8,100,30.26,2.5,NE,6.9,-,0.01,Rain,Rain,50,2013-04-27 12:34:00
7:56 AM,52.0,52.0,100,30.29,2.5,East,6.9,-,0.01,Rain,Rain,80,2013-04-27 12:56:00
8:15 AM,51.8,51.8,100,30.26,2.5,East,5.8,-,0.02,Rain,Heavy Rain,80,2013-04-27 13:15:00
8:56 AM,52.0,52.0,100,30.27,2.5,SE,6.9,-,0.08,Rain,Rain,140,2013-04-27 13:56:00
8:58 AM,51.8,51.8,100,30.25,1.5,SE,8.1,-,0.00,Rain,Heavy Rain,140,2013-04-27 13:58:00
9:02 AM,51.8,51.8,100,30.25,1.2,SSE,5.8,-,0.01,Rain,Heavy Rain,160,2013-04-27 14:02:00
9:15 AM,51.8,51.8,100,30.25,1.5,SE,3.5,-,0.04,Rain,Heavy Rain,140,2013-04-27 14:15:00
9:27 AM,53.6,51.8,94,30.25,1.5,SSE,5.8,-,0.04,Rain,Heavy Rain,160,2013-04-27 14:27:00
9:39 AM,53.6,53.6,100,30.28,1.8,WSW,6.9,-,0.06,Rain,Rain,250,2013-04-27 14:39:00
9:44 AM,53.6,53.6,100,30.28,1.2,Variable,4.6,-,0.09,Rain,Heavy Rain,0,2013-04-27 14:44:00
9:48 AM,53.6,53.6,100,30.27,1.0,Calm,Calm,-,0.12,Rain,Heavy Rain,0,2013-04-27 14:48:00
9:56 AM,52.9,52.9,100,30.30,1.2,Calm,Calm,-,0.14,Rain,Heavy Rain,0,2013-04-27 14:56:00
10:15 AM,53.6,53.6,100,30.25,1.5,SE,3.5,-,0.03,Rain,Heavy Rain,130,2013-04-27 15:15:00
10:28 AM,53.6,53.6,100,30.27,1.2,Calm,Calm,-,0.04,Rain,Heavy Rain,0,2013-04-27 15:28:00
10:38 AM,53.6,53.6,100,30.25,1.0,SSE,5.8,-,0.04,Rain,Heavy Rain,150,2013-04-27 15:38:00
10:46 AM,53.6,53.6,100,30.25,1.5,Calm,Calm,-,0.05,Rain,Heavy Rain,0,2013-04-27 15:46:00
10:56 AM,54.0,54.0,100,30.24,1.8,East,10.4,-,0.06,Rain,Heavy Rain,100,2013-04-27 15:56:00
11:01 AM,55.4,55.4,100,30.22,2.0,SE,9.2,-,0.01,Rain,Rain,140,2013-04-27 16:01:00
11:07 AM,55.4,55.4,100,30.22,3.0,SE,8.1,-,0.01,Rain,Rain,130,2013-04-27 16:07:00
11:14 AM,55.4,55.4,100,30.21,3.0,SE,12.7,-,0.01,Rain,Rain,130,2013-04-27 16:14:00
11:36 AM,55.4,55.4,100,30.24,1.8,SE,9.2,-,0.02,Rain,Heavy Rain,140,2013-04-27 16:36:00
11:56 AM,54.9,54.0,97,30.24,1.5,SE,15.0,-,0.02,Rain,Heavy Rain,140,2013-04-27 16:56:00
12:01 PM,55.4,53.6,94,30.21,1.8,SSE,17.3,24.2,0.00,Rain,Rain,150,2013-04-27 17:01:00
12:05 PM,55.4,55.4,100,30.20,2.0,SSE,17.3,24.2,0.00,Rain,Rain,150,2013-04-27 17:05:00
12:12 PM,55.4,55.4,100,30.19,3.0,SSE,15.0,-,0.00,Rain,Light Rain,150,2013-04-27 17:12:00
12:36 PM,57.2,55.4,94,30.19,9.0,SSE,12.7,21.9,0.00,,Mostly Cloudy,160,2013-04-27 17:36:00
12:48 PM,57.2,55.4,94,30.18,9.0,SE,13.8,-,0.00,,Mostly Cloudy,140,2013-04-27 17:48:00
12:56 PM,56.8,55.9,97,30.21,4.0,SSE,12.7,-,0.00,Rain,Light Rain,150,2013-04-27 17:56:00
1:47 PM,55.4,55.4,100,30.17,1.8,SSE,8.1,-,0.01,Rain,Heavy Rain,150,2013-04-27 18:47:00
1:56 PM,55.9,54.9,96,30.21,1.8,Variable,3.5,-,0.01,Rain,Rain,0,2013-04-27 18:56:00
2:10 PM,55.4,55.4,100,30.18,3.0,SSE,5.8,-,0.01,Rain,Light Rain,150,2013-04-27 19:10:00
2:27 PM,55.4,55.4,100,30.17,4.0,SE,6.9,-,0.01,Rain,Light Rain,140,2013-04-27 19:27:00
2:37 PM,55.4,55.4,100,30.17,2.0,SE,6.9,-,0.01,Rain,Rain,140,2013-04-27 19:37:00
2:56 PM,55.9,55.9,100,30.18,1.8,SE,8.1,-,0.01,Rain,Rain,130,2013-04-27 19:56:00
2:58 PM,55.4,55.4,100,30.15,2.0,SE,5.8,-,0.00,Rain,Light Rain,130,2013-04-27 19:58:00
3:04 PM,57.2,55.4,94,30.15,3.0,SE,5.8,-,0.00,Rain,Light Rain,140,2013-04-27 20:04:00
3:11 PM,55.4,55.4,100,30.15,6.0,SE,6.9,-,0.00,Rain,Light Rain,140,2013-04-27 20:11:00
3:56 PM,57.9,56.8,96,30.16,10.0,SE,6.9,-,0.00,,Overcast,140,2013-04-27 20:56:00
4:16 PM,57.2,57.2,100,30.11,10.0,SE,5.8,-,N/A,,Overcast,140,2013-04-27 21:16:00
4:56 PM,59.0,56.8,93,30.13,10.0,SSE,9.2,-,N/A,,Overcast,160,2013-04-27 21:56:00
5:13 PM,59.0,57.2,94,30.09,10.0,SSE,8.1,-,N/A,,Overcast,150,2013-04-27 22:13:00
5:45 PM,59.0,57.2,94,30.07,10.0,SE,8.1,-,N/A,,Overcast,140,2013-04-27 22:45:00
5:56 PM,59.0,56.8,93,30.09,10.0,SE,9.2,-,N/A,,Overcast,130,2013-04-27 22:56:00
6:56 PM,57.9,56.8,96,30.07,10.0,SSE,8.1,-,N/A,,Overcast,150,2013-04-27 23:56:00
7:56 PM,56.8,55.9,97,30.03,10.0,SSE,9.2,-,N/A,,Clear,160,2013-04-28 00:56:00
8:56 PM,55.9,55.9,100,30.02,10.0,South,6.9,-,N/A,,Clear,170,2013-04-28 01:56:00
9:56 PM,59.0,56.8,93,30.01,10.0,South,5.8,-,N/A,,Partly Cloudy,170,2013-04-28 02:56:00
10:56 PM,59.0,55.9,90,30.02,10.0,NE,16.1,-,0.00,,Overcast,50,2013-04-28 03:56:00
11:56 PM,59.0,56.8,93,30.02,2.0,North,26.5,32.2,0.12,Rain,Heavy Rain,350,2013-04-28 04:56:00
11:58 PM,57.2,57.2,100,30.00,1.0,NNW,34.5,42.6,0.08,Rain,Heavy Rain,340,2013-04-28 04:58:00